CYGNUS NG-24

Last updated on Thu Aug 20 2026 00:02:05 GMT+0000 (Coordinated Universal Time)

1 68689U 26079A 26231.53387315 .00011071 00000+0 20501-3 0 9990 2 68689 51.6332 346.5707 0007664 63.0282 297.1489 15.49512520581889
UTC large
Height (km)
Speed (km/s)
/
Latitude / Longitude
Inclination (degrees)
Orbital Period (minutes)
Azimuth
Elevation
Range (km)
Doppler Factor

Next 0 passes for location: London (51.5072 / 0.1276)

No passes found over London.
CYGNUS NG-24